Regional Weather Roundup
Issued by NWS

Home | Current Version | Previous Version | Graphics & Text | Print | Product List | Glossary On
Versions: 1 2 3 4 5 6 7 8 9 10 11 12 13 14 15 16 17 18 19 20 21 22 23 24 25 26 27 28 29 30 31 32 33 34 35 36 37 38 39 40 41 42 43 44 45 46 47 48 49 50
972
ASUS43 KMKX 300200
RWRWI

WISCONSIN REGIONAL WEATHER ROUNDUP
NATIONAL WEATHER SERVICE MILWAUKEE/SULLIVAN WI
900 PM CDT FRI APR 29 2016

NOTE: "FAIR" INDICATES FEW OR NO CLOUDS BELOW 12,000 FEET WITH NO
SIGNIFICANT WEATHER AND/OR OBSTRUCTIONS TO VISIBILITY.

WIZ001-002-006>008-014>016-023>028-300300-
NORTHWEST WISCONSIN

CITY           SKY/WX    TMP DP  RH WIND       PRES   REMARKS
SUPERIOR ARPT  CLEAR     39  32  74 NE9       30.22S WCI  33
ASHLAND        CLEAR     34  29  82 NE6       30.22S WCI  29
HAYWARD        CLEAR     45  29  53 NE8       30.18R
SIREN          CLEAR     53  30  42 NE6       30.14S
CUMBERLAND     CLEAR     50  30  46 NE8       30.13S
RICE LAKE      CLOUDY    53  31  43 N14G21    30.14S
CHETEK         CLOUDY    53  41  64 CALM      30.12S
LADYSMITH      CLOUDY    51  32  48 N12       30.15S
EAU CLAIRE     NOT AVBL
MENOMONIE      CLEAR     50  37  60 SE3       30.12S
NEW RICHMOND   CLEAR     51  41  69 CALM      30.11S
OSCEOLA        CLEAR     53  38  56 NE3       30.13S
$$

WIZ003>005-009-010-017-018-300300-
NORTH CENTRAL WISCONSIN

CITY           SKY/WX    TMP DP  RH WIND       PRES   REMARKS
MANITOWISH WTR PTCLDY    46  30  54 N8        30.17R
ARBOR VITAE    CLOUDY    52  34  50 N10       30.15R
WOODRUFF       CLOUDY    52  34  50 N10       30.15R
RHINELANDER    MOCLDY    49  32  52 CALM      30.14S
EAGLE RIVER    CLOUDY    50  31  48 N9        30.15R
LAND O LAKES   CLOUDY    49  30  49 N7        30.17R
PHILLIPS       CLOUDY    49  33  52 N10       30.14S
TOMAHAWK       CLOUDY    47  38  72 CALM      30.14S
MEDFORD        CLEAR     47  38  72 CALM      30.12F
MERRILL        CLEAR     43  37  81 CALM      30.15R
$$

WIZ029-030-035-036-043>047-300300-
CENTRAL WISCONSIN

CITY           SKY/WX    TMP DP  RH WIND       PRES   REMARKS
WAUSAU         CLEAR     50  34  54 E5        30.12S
MOSINEE        MOCLDY    48  34  57 E5        30.14S
MARSHFIELD     MOCLDY    50  35  56 E3        30.12R
STEVENS POINT  CLOUDY    48  36  62 E5        30.14S
WAUPACA        CLEAR     52  32  46 NE3       30.14F
WAUTOMA        NOT AVBL
WISC RAPIDS    CLOUDY    50  35  56 SE6       30.14S
CAMP DOUGLAS   NOT AVBL
$$

WIZ011>013-019>022-031-037>040-048>050-300300-
NORTHEAST WISCONSIN

CITY           SKY/WX    TMP DP  RH WIND       PRES   REMARKS
ANTIGO         CLEAR     44  34  67 CALM      30.15S
SHAWANO        CLOUDY    50  30  46 CALM      30.16S
OCONTO         CLOUDY    44  32  64 CALM      30.16S
STURGEON BAY   CLEAR     45  27  49 CALM      30.18F
GREEN BAY      CLEAR     45  31  58 E3        30.15F
MANITOWOC      NOT AVBL
APPLETON       PTCLDY    50  30  46 E6        30.12F
CLINTONVILLE   CLEAR     46  32  57 E5        30.15S
OSHKOSH        CLEAR     47  32  56 SE6       30.13F
$$

WIZ032>034-041-042-053>061-300300-
SOUTHWEST WISCONSIN

CITY           SKY/WX    TMP DP  RH WIND       PRES   REMARKS
LA CROSSE      CLOUDY    50  41  71 N5        30.11F
SPARTA         CLOUDY    49  41  74 N3        30.12S
VIROQUA        CLOUDY    47  38  71 CALM      30.10F
BOSCOBEL       CLOUDY    49  41  74 CALM      30.11F
PRAIRIE DU CHI CLOUDY    49  38  65 CALM      30.10S
PLATTEVILLE    CLOUDY    46  42  86 E6        30.10F
$$

WIZ056-057-062-063-064-067-068-300300-
SOUTH CENTRAL WISCONSIN

CITY           SKY/WX    TMP DP  RH WIND       PRES   REMARKS
REEDSBURG      CLEAR     47  38  72 CALM      30.11S
BARABOO/DELLS  CLEAR     45  36  71 CALM      30.11S
LONE ROCK      NOT AVBL
MINERAL POINT  CLOUDY    46  41  81 CALM      30.10F
MADISON        PTCLDY    45  38  76 E8        30.12R
MIDDLETON      CLEAR     44  41  91 CALM      30.12S
WATERTOWN      CLEAR     44  37  75 E7        30.13R
MONROE         CLOUDY    45  39  81 E3        30.10F
JANESVILLE     CLEAR     45  43  93 E5        30.11F
$$

WIZ051-052-058>065-066-070>072-300300-
SOUTHEAST WISCONSIN

CITY           SKY/WX    TMP DP  RH WIND       PRES   REMARKS
MILWAUKEE      PTCLDY    40  33  76 NE5       30.15R
WAUKESHA       CLEAR     39  34  81 E5        30.15R
MILWAUKEE/TIMM CLEAR     43  28  56 CALM      30.16R
RACINE         CLOUDY    41  34  76 NE5       30.17R
BURLINGTON     PTCLDY    41  36  81 E6        30.14S
KENOSHA        CLOUDY    42  36  79 E7        30.15S
FOND DU LAC    CLEAR     47  30  51 E8        30.13F
SHEBOYGAN      CLEAR     39  27  62 CALM      30.15F
WEST BEND      CLEAR     41  32  70 E3        30.15S
JUNEAU         CLEAR     45  34  65 E7        30.13S
$$

LSZ147-162-300300-
LAKE SUPERIOR

STATION/POSITION TIME  TEMP    WIND        PRES    WAVE
                       AIR SEA DIR/SP/G            HT/PER
                 (UTC) (F)     (DEG/KT/KT) (MB)    (FT/S)
W MID LAKE BUOY  0050   38 37  340/  6/  6 1024.3R   1/ 4
DEVILS ISLAND    0100   38      40/  9/ 10 1024.5R
SAXON HARBOR     0100   39     350/  4/  5 1023.0
$$

LMZ867-665-643>646-300300-
LAKE MICHIGAN

STATION/POSITION TIME  TEMP    WIND        PRES    WAVE
                       AIR SEA DIR/SP/G            HT/PER
                 (UTC) (F)     (DEG/KT/KT) (MB)    (FT/S)
CHAMBERS ISLAND  0100   44      CALM  /  1 1021.7R
N MID LAKE BUOY  0050   42 39  350/  2/  2 1021.3R   0
NORTHPORT PIER   0100   44     320/  2/  5 1021.3R
ALGOMA LAKESHORE 0115           60/  3/  4   N/A
KEWAUNEE LAKESHO 0100   45                 1020.7R
SHEBOYGAN LAKESH 0100   42        CALM     1022.2R
PORT WASHINGTON  0100   44      30/  5/  8 1021.7F
S MID LAKE BUOY  0050   40 40   30/ 12/ 14 1020.4F   1/ 3
KENOSHA   LAKESH 0100   42      30/  7/  7 1021.0R
$$

TC  - TEMPERATURE IN CELSIUS
VSB - VISIBILITY IN STATUTE MILES
WCI - WIND CHILL INDEX
HX  - HEAT INDEX





USA.gov is the U.S. government's official web portal to all federal, state and local government web resources and services.